Flag for U.S.A. Weather past 2 weeks in Spokane, Washington, U.S.A.

Now
45 °F

Mostly cloudy.


Feels Like: 44 °F
Forecast: 37 / 62 °F
Wind: 3 mph from West

Location: Felts Field

Current Time: May 6, 2015 at 1:38:51 AM

Latest Report: May 6, 2015 at 12:53 AM


Visibility: 10 mi

Pressure: 29.95 "Hg

Humidity: 56%

Dew point: 30 °F

Location of SpokaneLocation

Historic Weather in Spokane — Graph

°F

Spokane temperature yesterday

Maximum temperature yesterday: 62 °F (at 3:53 PM)
Minimum temperature yesterday: 44 °F (at 11:53 PM)
Average temperature yesterday: 54 °F

Past Weeks' High & Low Weather Summary

 TemperatureHumidityPressure
High81 °F (Apr 28, 2:53 PM)100% (Apr 26, 3:57 AM)30.37 "Hg (Apr 26, 3:57 AM)
Low33 °F (Apr 26, 4:53 AM)13% (May 4, 4:53 PM)29.69 "Hg (Apr 24, 2:53 AM)
Average53 °F51%29.95 "Hg
* Reported Apr 20 11:53 PM — May 5 11:53 PM, Spokane, Weather by CustomWeather, © 2015

Note: Actual official high and low records may vary slightly from our data, if they occured in-between our weather recording intervals... More about our weather records

Advertising

Spokane weather history for previous 24 hours

 ConditionsComfort  
Time TempWeatherWind HumidityBarometerVisibility
11:53 PM
Tue, May 5
44 °FPassing clouds.No wind53%29.95 "Hg10 mi
10:53 PM45 °FOvercast.No wind56%29.94 "Hg10 mi
9:53 PM46 °FClear.3 mph48%29.94 "Hg10 mi
8:53 PM50 °FSunny.No wind41%29.93 "Hg10 mi
7:53 PM58 °FSunny.8 mph20%29.91 "Hg10 mi
6:53 PM60 °FScattered clouds.12 mph22%29.90 "Hg10 mi
5:53 PM61 °FPartly sunny.20 mph23%29.90 "Hg10 mi
4:53 PM62 °FPartly sunny.18 mph24%29.90 "Hg10 mi
3:53 PM62 °FScattered clouds.20 mph24%29.91 "Hg10 mi
2:53 PM61 °FScattered clouds.14 mph25%29.92 "Hg10 mi
1:53 PM61 °FScattered clouds.12 mph26%29.92 "Hg10 mi
12:53 PM61 °FPartly sunny.20 mph29%29.93 "Hg10 mi
11:53 AM58 °FPartly sunny.15 mph36%29.94 "Hg10 mi
10:53 AM58 °FPartly sunny.20 mph35%29.93 "Hg10 mi
9:53 AM56 °FScattered clouds.15 mph39%29.95 "Hg10 mi
8:53 AM52 °FSunny.13 mph53%29.94 "Hg10 mi
7:53 AM50 °FPassing clouds.13 mph59%29.93 "Hg10 mi
6:53 AM48 °FPassing clouds.13 mph59%29.92 "Hg10 mi
5:53 AM46 °FClear.8 mph61%29.90 "Hg10 mi
4:53 AM47 °FClear.8 mph61%29.89 "Hg10 mi
3:53 AM48 °FClear.7 mph56%29.87 "Hg10 mi
2:53 AM50 °FClear.12 mph50%29.86 "Hg10 mi
1:53 AM52 °FClear.7 mph47%29.85 "Hg10 mi
Weather by CustomWeather, © 2015

See weather overviewHow to use our weather pages